ABS-3A

Last updated on Thu Jul 03 2025 00:02:46 GMT+0000 (Coordinated Universal Time)

1 40424U 15010A 25183.35392052 -.00000020 00000+0 00000+0 0 9990 2 40424 0.0333 62.4931 0001910 355.1731 347.3628 1.00270409 37866
UTC large
Height (km)
Speed (km/s)
/
Latitude / Longitude
Inclination (degrees)
Orbital Period (minutes)
Azimuth
Elevation
Range (km)
Doppler Factor

Next 0 passes for location: London (51.5072 / 0.1276)

Sorry there are no passes over London.